Time,TemperatureF,DewpointF,PressureIn,WindDirection,WindDirectionDegrees,WindSpeedMPH,WindSpeedGustMPH,Humidity,HourlyPrecipIn,Conditions,Clouds,dailyrainin,SoftwareType,DateUTC
2013-04-29 00:00:00,49.3,31.0,30.28,SSW,202,1.0,8.0,49,0.00,,,0.00,WeatherCatV1.02B3,2013-04-29 04:00:00,
2013-04-29 00:05:00,49.3,31.0,30.28,SSW,202,1.0,8.0,49,0.00,,,0.00,WeatherCatV1.02B3,2013-04-29 04:05:00,
2013-04-29 00:10:00,49.3,31.0,30.28,SSW,202,1.0,8.0,49,0.00,,,0.00,WeatherCatV1.02B3,2013-04-29 04:10:00,
2013-04-29 00:15:00,49.3,31.0,30.28,SSW,202,1.0,8.0,49,0.00,,,0.00,WeatherCatV1.02B3,2013-04-29 04:15:00,
2013-04-29 00:20:00,49.3,31.0,30.28,SSW,202,1.0,8.0,49,0.00,,,0.00,WeatherCatV1.02B3,2013-04-29 04:20:00,
2013-04-29 00:25:00,49.3,31.0,30.28,SSW,202,1.0,8.0,49,0.00,,,0.00,WeatherCatV1.02B3,2013-04-29 04:25:00,
2013-04-29 00:30:00,49.3,31.0,30.28,SSW,202,1.0,8.0,49,0.00,,,0.00,WeatherCatV1.02B3,2013-04-29 04:30:00,
2013-04-29 00:35:00,48.7,35.0,30.28,SSW,202,2.0,8.0,59,0.00,,,0.00,WeatherCatV1.02B3,2013-04-29 04:35:00,
2013-04-29 00:40:00,48.7,35.0,30.28,SSW,202,2.0,8.0,59,0.00,,,0.00,WeatherCatV1.02B3,2013-04-29 04:40:00,
2013-04-29 00:45:00,48.7,35.0,30.28,SSW,202,2.0,8.0,59,0.00,,,0.00,WeatherCatV1.02B3,2013-04-29 04:45:00,
2013-04-29 00:50:00,48.7,35.0,30.28,SSW,202,2.0,8.0,59,0.00,,,0.00,WeatherCatV1.02B3,2013-04-29 04:50:00,
2013-04-29 00:55:00,48.7,35.0,30.28,SSW,202,2.0,8.0,59,0.00,,,0.00,WeatherCatV1.02B3,2013-04-29 04:55:00,
2013-04-29 01:00:00,48.1,37.3,30.29,SSW,202,1.0,7.0,66,0.00,,,0.00,WeatherCatV1.02B3,2013-04-29 05:00:00,
2013-04-29 01:05:00,48.1,37.3,30.29,SSW,202,1.0,7.0,66,0.00,,,0.00,WeatherCatV1.02B3,2013-04-29 05:05:00,
2013-04-29 01:10:00,48.1,37.3,30.29,SSW,202,1.0,7.0,66,0.00,,,0.00,WeatherCatV1.02B3,2013-04-29 05:10:00,
2013-04-29 01:15:00,48.1,37.3,30.29,SSW,202,1.0,7.0,66,0.00,,,0.00,WeatherCatV1.02B3,2013-04-29 05:15:00,
2013-04-29 01:20:00,48.1,37.3,30.29,SSW,202,1.0,7.0,66,0.00,,,0.00,WeatherCatV1.02B3,2013-04-29 05:20:00,
2013-04-29 01:25:00,48.1,37.3,30.29,SSW,202,1.0,7.0,66,0.00,,,0.00,WeatherCatV1.02B3,2013-04-29 05:25:00,
2013-04-29 01:30:00,47.3,38.4,30.28,SSW,202,0.0,3.0,71,0.00,,,0.00,WeatherCatV1.02B3,2013-04-29 05:30:00,
2013-04-29 01:35:00,47.3,38.4,30.28,SSW,202,0.0,3.0,71,0.00,,,0.00,WeatherCatV1.02B3,2013-04-29 05:35:00,
2013-04-29 01:40:00,47.3,38.4,30.28,SSW,202,0.0,3.0,71,0.00,,,0.00,WeatherCatV1.02B3,2013-04-29 05:40:00,
2013-04-29 01:45:00,47.3,38.4,30.28,SSW,202,0.0,3.0,71,0.00,,,0.00,WeatherCatV1.02B3,2013-04-29 05:45:00,
2013-04-29 01:50:00,47.3,38.4,30.28,SSW,202,0.0,3.0,71,0.00,,,0.00,WeatherCatV1.02B3,2013-04-29 05:50:00,
2013-04-29 01:55:00,47.3,38.4,30.28,SSW,202,0.0,3.0,71,0.00,,,0.00,WeatherCatV1.02B3,2013-04-29 05:55:00,
2013-04-29 02:00:00,47.3,38.4,30.28,SSW,202,0.0,3.0,71,0.00,,,0.00,WeatherCatV1.02B3,2013-04-29 06:00:00,
2013-04-29 02:05:00,46.8,39.3,30.27,SSW,202,0.0,3.0,75,0.00,,,0.00,WeatherCatV1.02B3,2013-04-29 06:05:00,
2013-04-29 02:10:00,46.8,39.3,30.27,SSW,202,0.0,3.0,75,0.00,,,0.00,WeatherCatV1.02B3,2013-04-29 06:10:00,
2013-04-29 02:15:00,46.8,39.3,30.27,SSW,202,0.0,3.0,75,0.00,,,0.00,WeatherCatV1.02B3,2013-04-29 06:15:00,
2013-04-29 02:20:00,46.8,39.3,30.27,SSW,202,0.0,3.0,75,0.00,,,0.00,WeatherCatV1.02B3,2013-04-29 06:20:00,
2013-04-29 02:25:00,46.8,39.3,30.27,SSW,202,0.0,3.0,75,0.00,,,0.00,WeatherCatV1.02B3,2013-04-29 06:25:00,
2013-04-29 02:30:00,46.5,40.0,30.26,SSW,202,0.0,2.0,78,0.00,,,0.00,WeatherCatV1.02B3,2013-04-29 06:30:00,
2013-04-29 02:35:00,46.5,40.0,30.26,SSW,202,0.0,2.0,78,0.00,,,0.00,WeatherCatV1.02B3,2013-04-29 06:35:00,
2013-04-29 02:40:00,46.5,40.0,30.26,SSW,202,0.0,2.0,78,0.00,,,0.00,WeatherCatV1.02B3,2013-04-29 06:40:00,
2013-04-29 02:45:00,46.5,40.0,30.26,SSW,202,0.0,2.0,78,0.00,,,0.00,WeatherCatV1.02B3,2013-04-29 06:45:00,
2013-04-29 02:50:00,46.5,40.0,30.26,SSW,202,0.0,2.0,78,0.00,,,0.00,WeatherCatV1.02B3,2013-04-29 06:50:00,
2013-04-29 02:55:00,46.5,40.0,30.26,SSW,202,0.0,2.0,78,0.00,,,0.00,WeatherCatV1.02B3,2013-04-29 06:55:00,
2013-04-29 03:00:00,46.2,40.4,30.25,SSW,202,0.0,5.0,80,0.00,,,0.00,WeatherCatV1.02B3,2013-04-29 07:00:00,
2013-04-29 03:05:00,46.2,40.4,30.25,SSW,202,0.0,5.0,80,0.00,,,0.00,WeatherCatV1.02B3,2013-04-29 07:05:00,
2013-04-29 03:10:00,46.2,40.4,30.25,SSW,202,0.0,5.0,80,0.00,,,0.00,WeatherCatV1.02B3,2013-04-29 07:10:00,
2013-04-29 03:15:00,46.2,40.4,30.25,SSW,202,0.0,5.0,80,0.00,,,0.00,WeatherCatV1.02B3,2013-04-29 07:15:00,
2013-04-29 03:20:00,46.2,40.4,30.25,SSW,202,0.0,5.0,80,0.00,,,0.00,WeatherCatV1.02B3,2013-04-29 07:20:00,
2013-04-29 03:25:00,46.2,40.4,30.25,SSW,202,0.0,5.0,80,0.00,,,0.00,WeatherCatV1.02B3,2013-04-29 07:25:00,
2013-04-29 03:30:00,46.2,40.4,30.25,SSW,202,0.0,5.0,80,0.00,,,0.00,WeatherCatV1.02B3,2013-04-29 07:30:00,
2013-04-29 03:35:00,45.7,40.5,30.25,SSW,202,0.0,4.0,82,0.00,,,0.00,WeatherCatV1.02B3,2013-04-29 07:35:00,
2013-04-29 03:40:00,45.7,40.5,30.25,SSW,202,0.0,4.0,82,0.00,,,0.00,WeatherCatV1.02B3,2013-04-29 07:40:00,
2013-04-29 03:45:00,45.7,40.5,30.25,SSW,202,0.0,4.0,82,0.00,,,0.00,WeatherCatV1.02B3,2013-04-29 07:45:00,
2013-04-29 03:50:00,45.7,40.5,30.25,SSW,202,0.0,4.0,82,0.00,,,0.00,WeatherCatV1.02B3,2013-04-29 07:50:00,
2013-04-29 03:55:00,45.7,40.5,30.25,SSW,202,0.0,4.0,82,0.00,,,0.00,WeatherCatV1.02B3,2013-04-29 07:55:00,
2013-04-29 04:00:00,45.7,40.5,30.25,SSW,202,0.0,4.0,82,0.00,,,0.00,WeatherCatV1.02B3,2013-04-29 08:00:00,
2013-04-29 04:05:00,45.8,41.3,30.25,SSW,202,0.0,4.0,84,0.00,,,0.00,WeatherCatV1.02B3,2013-04-29 08:05:00,
2013-04-29 04:10:00,45.8,41.3,30.25,SSW,202,0.0,4.0,84,0.00,,,0.00,WeatherCatV1.02B3,2013-04-29 08:10:00,
2013-04-29 04:15:00,45.8,41.3,30.25,SSW,202,0.0,4.0,84,0.00,,,0.00,WeatherCatV1.02B3,2013-04-29 08:15:00,
2013-04-29 04:20:00,45.8,41.3,30.25,SSW,202,0.0,4.0,84,0.00,,,0.00,WeatherCatV1.02B3,2013-04-29 08:20:00,
2013-04-29 04:25:00,45.8,41.3,30.25,SSW,202,0.0,4.0,84,0.00,,,0.00,WeatherCatV1.02B3,2013-04-29 08:25:00,
2013-04-29 04:30:00,45.4,40.9,30.26,SSW,202,0.0,5.0,84,0.00,,,0.00,WeatherCatV1.02B3,2013-04-29 08:30:00,
2013-04-29 04:35:00,45.4,40.9,30.26,SSW,202,0.0,5.0,84,0.00,,,0.00,WeatherCatV1.02B3,2013-04-29 08:35:00,
2013-04-29 04:40:00,45.4,40.9,30.26,SSW,202,0.0,5.0,84,0.00,,,0.00,WeatherCatV1.02B3,2013-04-29 08:40:00,
2013-04-29 04:45:00,45.4,40.9,30.26,SSW,202,0.0,5.0,84,0.00,,,0.00,WeatherCatV1.02B3,2013-04-29 08:45:00,
2013-04-29 04:50:00,45.4,40.9,30.26,SSW,202,0.0,5.0,84,0.00,,,0.00,WeatherCatV1.02B3,2013-04-29 08:50:00,
2013-04-29 04:55:00,45.4,40.9,30.26,SSW,202,0.0,5.0,84,0.00,,,0.00,WeatherCatV1.02B3,2013-04-29 08:55:00,
2013-04-29 05:00:00,44.5,40.6,30.26,SSW,202,0.0,0.0,86,0.00,,,0.00,WeatherCatV1.02B3,2013-04-29 09:00:00,
2013-04-29 05:05:00,44.5,40.6,30.26,SSW,202,0.0,0.0,86,0.00,,,0.00,WeatherCatV1.02B3,2013-04-29 09:05:00,
2013-04-29 05:10:00,44.5,40.6,30.26,SSW,202,0.0,0.0,86,0.00,,,0.00,WeatherCatV1.02B3,2013-04-29 09:10:00,
2013-04-29 05:15:00,44.5,40.6,30.26,SSW,202,0.0,0.0,86,0.00,,,0.00,WeatherCatV1.02B3,2013-04-29 09:15:00,
2013-04-29 05:20:00,44.5,40.6,30.26,SSW,202,0.0,0.0,86,0.00,,,0.00,WeatherCatV1.02B3,2013-04-29 09:20:00,
2013-04-29 05:25:00,44.5,40.6,30.26,SSW,202,0.0,0.0,86,0.00,,,0.00,WeatherCatV1.02B3,2013-04-29 09:25:00,
2013-04-29 05:30:00,44.5,40.6,30.26,SSW,202,0.0,0.0,86,0.00,,,0.00,WeatherCatV1.02B3,2013-04-29 09:30:00,
2013-04-29 05:35:00,44.3,41.0,30.27,SSW,202,0.0,3.0,88,0.00,,,0.00,WeatherCatV1.02B3,2013-04-29 09:35:00,
2013-04-29 05:40:00,44.3,41.0,30.27,SSW,202,0.0,3.0,88,0.00,,,0.00,WeatherCatV1.02B3,2013-04-29 09:40:00,
2013-04-29 05:45:00,44.3,41.0,30.27,SSW,202,0.0,3.0,88,0.00,,,0.00,WeatherCatV1.02B3,2013-04-29 09:45:00,
2013-04-29 05:50:00,44.3,41.0,30.27,SSW,202,0.0,3.0,88,0.00,,,0.00,WeatherCatV1.02B3,2013-04-29 09:50:00,
2013-04-29 05:55:00,44.3,41.0,30.27,SSW,202,0.0,3.0,88,0.00,,,0.00,WeatherCatV1.02B3,2013-04-29 09:55:00,
2013-04-29 06:00:00,44.3,41.0,30.27,SSW,202,0.0,3.0,88,0.00,,,0.00,WeatherCatV1.02B3,2013-04-29 10:00:00,
2013-04-29 06:05:00,44.4,41.4,30.27,SSW,202,0.0,0.0,89,0.00,,,0.00,WeatherCatV1.02B3,2013-04-29 10:05:00,
2013-04-29 06:10:00,44.4,41.4,30.27,SSW,202,0.0,0.0,89,0.00,,,0.00,WeatherCatV1.02B3,2013-04-29 10:10:00,
2013-04-29 06:15:00,44.4,41.4,30.27,SSW,202,0.0,0.0,89,0.00,,,0.00,WeatherCatV1.02B3,2013-04-29 10:15:00,
2013-04-29 06:20:00,44.4,41.4,30.27,SSW,202,0.0,0.0,89,0.00,,,0.00,WeatherCatV1.02B3,2013-04-29 10:20:00,
2013-04-29 06:25:00,44.4,41.4,30.27,SSW,202,0.0,0.0,89,0.00,,,0.00,WeatherCatV1.02B3,2013-04-29 10:25:00,
2013-04-29 06:30:00,44.4,41.4,30.27,SSW,202,0.0,0.0,89,0.00,,,0.00,WeatherCatV1.02B3,2013-04-29 10:30:00,
2013-04-29 06:35:00,44.6,41.8,30.28,SSW,202,0.0,0.0,90,0.00,,,0.00,WeatherCatV1.02B3,2013-04-29 10:35:00,
2013-04-29 06:40:00,44.6,41.8,30.28,SSW,202,0.0,0.0,90,0.00,,,0.00,WeatherCatV1.02B3,2013-04-29 10:40:00,
2013-04-29 06:45:00,44.6,41.8,30.28,SSW,202,0.0,0.0,90,0.00,,,0.00,WeatherCatV1.02B3,2013-04-29 10:45:00,
2013-04-29 06:50:00,44.6,41.8,30.28,SSW,202,0.0,0.0,90,0.00,,,0.00,WeatherCatV1.02B3,2013-04-29 10:50:00,
2013-04-29 06:55:00,44.6,41.8,30.28,SSW,202,0.0,0.0,90,0.00,,,0.00,WeatherCatV1.02B3,2013-04-29 10:55:00,
2013-04-29 07:00:00,44.6,41.8,30.28,SSW,202,0.0,0.0,90,0.00,,,0.00,WeatherCatV1.02B3,2013-04-29 11:00:00,
2013-04-29 07:05:00,45.5,42.7,30.28,SSW,202,0.0,0.0,90,0.00,,,0.00,WeatherCatV1.02B3,2013-04-29 11:05:00,
2013-04-29 07:10:00,45.5,42.7,30.28,SSW,202,0.0,0.0,90,0.00,,,0.00,WeatherCatV1.02B3,2013-04-29 11:10:00,
2013-04-29 07:15:00,45.5,42.7,30.28,SSW,202,0.0,0.0,90,0.00,,,0.00,WeatherCatV1.02B3,2013-04-29 11:15:00,
2013-04-29 07:20:00,45.5,42.7,30.28,SSW,202,0.0,0.0,90,0.00,,,0.00,WeatherCatV1.02B3,2013-04-29 11:20:00,
2013-04-29 07:25:00,45.5,42.7,30.28,SSW,202,0.0,0.0,90,0.00,,,0.00,WeatherCatV1.02B3,2013-04-29 11:25:00,
2013-04-29 07:30:00,48.7,44.7,30.29,SW,225,1.0,6.0,86,0.00,,,0.00,WeatherCatV1.02B3,2013-04-29 11:30:00,
2013-04-29 07:35:00,48.7,44.7,30.29,SW,225,1.0,6.0,86,0.00,,,0.00,WeatherCatV1.02B3,2013-04-29 11:35:00,
2013-04-29 07:40:00,48.7,44.7,30.29,SW,225,1.0,6.0,86,0.00,,,0.00,WeatherCatV1.02B3,2013-04-29 11:40:00,
2013-04-29 07:45:00,48.7,44.7,30.29,SW,225,1.0,6.0,86,0.00,,,0.00,WeatherCatV1.02B3,2013-04-29 11:45:00,
2013-04-29 07:50:00,48.7,44.7,30.29,SW,225,1.0,6.0,86,0.00,,,0.00,WeatherCatV1.02B3,2013-04-29 11:50:00,
2013-04-29 07:55:00,48.7,44.7,30.29,SW,225,1.0,6.0,86,0.00,,,0.00,WeatherCatV1.02B3,2013-04-29 11:55:00,
2013-04-29 08:00:00,51.2,45.6,30.29,SSW,202,2.0,7.0,81,0.00,,,0.00,WeatherCatV1.02B3,2013-04-29 12:00:00,
2013-04-29 08:05:00,51.2,45.6,30.29,SSW,202,2.0,7.0,81,0.00,,,0.00,WeatherCatV1.02B3,2013-04-29 12:05:00,
2013-04-29 08:10:00,51.2,45.6,30.29,SSW,202,2.0,7.0,81,0.00,,,0.00,WeatherCatV1.02B3,2013-04-29 12:10:00,
2013-04-29 08:15:00,51.2,45.6,30.29,SSW,202,2.0,7.0,81,0.00,,,0.00,WeatherCatV1.02B3,2013-04-29 12:15:00,
2013-04-29 08:20:00,51.2,45.6,30.29,SSW,202,2.0,7.0,81,0.00,,,0.00,WeatherCatV1.02B3,2013-04-29 12:20:00,
2013-04-29 08:25:00,51.2,45.6,30.29,SSW,202,2.0,7.0,81,0.00,,,0.00,WeatherCatV1.02B3,2013-04-29 12:25:00,
2013-04-29 08:30:00,51.2,45.6,30.29,SSW,202,2.0,7.0,81,0.00,,,0.00,WeatherCatV1.02B3,2013-04-29 12:30:00,
2013-04-29 08:35:00,54.1,46.3,30.29,SSW,202,1.0,5.0,75,0.00,,,0.00,WeatherCatV1.02B3,2013-04-29 12:35:00,
2013-04-29 08:40:00,54.1,46.3,30.29,SSW,202,1.0,5.0,75,0.00,,,0.00,WeatherCatV1.02B3,2013-04-29 12:40:00,
2013-04-29 08:45:00,54.1,46.3,30.29,SSW,202,1.0,5.0,75,0.00,,,0.00,WeatherCatV1.02B3,2013-04-29 12:45:00,
2013-04-29 08:50:00,54.1,46.3,30.29,SSW,202,1.0,5.0,75,0.00,,,0.00,WeatherCatV1.02B3,2013-04-29 12:50:00,
2013-04-29 08:55:00,54.1,46.3,30.29,SSW,202,1.0,5.0,75,0.00,,,0.00,WeatherCatV1.02B3,2013-04-29 12:55:00,
2013-04-29 09:00:00,57.0,46.5,30.28,South,180,2.0,8.0,68,0.00,,,0.00,WeatherCatV1.02B3,2013-04-29 13:00:00,
2013-04-29 09:05:00,57.0,46.5,30.28,South,180,2.0,8.0,68,0.00,,,0.00,WeatherCatV1.02B3,2013-04-29 13:05:00,
2013-04-29 09:10:00,57.0,46.5,30.28,South,180,2.0,8.0,68,0.00,,,0.00,WeatherCatV1.02B3,2013-04-29 13:10:00,
2013-04-29 09:15:00,57.0,46.5,30.28,South,180,2.0,8.0,68,0.00,,,0.00,WeatherCatV1.02B3,2013-04-29 13:15:00,
2013-04-29 09:20:00,57.0,46.5,30.28,South,180,2.0,8.0,68,0.00,,,0.00,WeatherCatV1.02B3,2013-04-29 13:20:00,
2013-04-29 09:25:00,57.0,46.5,30.28,South,180,2.0,8.0,68,0.00,,,0.00,WeatherCatV1.02B3,2013-04-29 13:25:00,
2013-04-29 09:30:00,58.2,46.9,30.28,SW,225,2.0,9.0,66,0.00,,,0.00,WeatherCatV1.02B3,2013-04-29 13:30:00,
2013-04-29 09:35:00,58.2,46.9,30.28,SW,225,2.0,9.0,66,0.00,,,0.00,WeatherCatV1.02B3,2013-04-29 13:35:00,
2013-04-29 09:40:00,58.2,46.9,30.28,SW,225,2.0,9.0,66,0.00,,,0.00,WeatherCatV1.02B3,2013-04-29 13:40:00,
2013-04-29 09:45:00,58.2,46.9,30.28,SW,225,2.0,9.0,66,0.00,,,0.00,WeatherCatV1.02B3,2013-04-29 13:45:00,
2013-04-29 09:50:00,58.2,46.9,30.28,SW,225,2.0,9.0,66,0.00,,,0.00,WeatherCatV1.02B3,2013-04-29 13:50:00,
2013-04-29 09:55:00,58.2,46.9,30.28,SW,225,2.0,9.0,66,0.00,,,0.00,WeatherCatV1.02B3,2013-04-29 13:55:00,
2013-04-29 10:00:00,59.5,46.5,30.27,SSW,202,2.0,8.0,62,0.00,,,0.00,WeatherCatV1.02B3,2013-04-29 14:00:00,
2013-04-29 10:05:00,59.5,46.5,30.27,SSW,202,2.0,8.0,62,0.00,,,0.00,WeatherCatV1.02B3,2013-04-29 14:05:00,
2013-04-29 10:10:00,59.5,46.5,30.27,SSW,202,2.0,8.0,62,0.00,,,0.00,WeatherCatV1.02B3,2013-04-29 14:10:00,
2013-04-29 10:15:00,59.5,46.5,30.27,SSW,202,2.0,8.0,62,0.00,,,0.00,WeatherCatV1.02B3,2013-04-29 14:15:00,
2013-04-29 10:20:00,59.5,46.5,30.27,SSW,202,2.0,8.0,62,0.00,,,0.00,WeatherCatV1.02B3,2013-04-29 14:20:00,
2013-04-29 10:25:00,59.5,46.5,30.27,SSW,202,2.0,8.0,62,0.00,,,0.00,WeatherCatV1.02B3,2013-04-29 14:25:00,
2013-04-29 10:30:00,59.5,46.5,30.27,SSW,202,2.0,8.0,62,0.00,,,0.00,WeatherCatV1.02B3,2013-04-29 14:30:00,
2013-04-29 10:35:00,60.9,45.6,30.26,South,180,3.0,10.0,57,0.00,,,0.00,WeatherCatV1.02B3,2013-04-29 14:35:00,
2013-04-29 10:40:00,60.9,45.6,30.26,South,180,3.0,10.0,57,0.00,,,0.00,WeatherCatV1.02B3,2013-04-29 14:40:00,
2013-04-29 10:45:00,60.9,45.6,30.26,South,180,3.0,10.0,57,0.00,,,0.00,WeatherCatV1.02B3,2013-04-29 14:45:00,
2013-04-29 10:50:00,60.9,45.6,30.26,South,180,3.0,10.0,57,0.00,,,0.00,WeatherCatV1.02B3,2013-04-29 14:50:00,
2013-04-29 10:55:00,60.9,45.6,30.26,South,180,3.0,10.0,57,0.00,,,0.00,WeatherCatV1.02B3,2013-04-29 14:55:00,
2013-04-29 11:00:00,60.9,45.6,30.26,South,180,3.0,10.0,57,0.00,,,0.00,WeatherCatV1.02B3,2013-04-29 15:00:00,
2013-04-29 11:05:00,61.8,45.0,30.25,WNW,292,2.0,11.0,54,0.00,,,0.00,WeatherCatV1.02B3,2013-04-29 15:05:00,
2013-04-29 11:10:00,61.8,45.0,30.25,WNW,292,2.0,11.0,54,0.00,,,0.00,WeatherCatV1.02B3,2013-04-29 15:10:00,
2013-04-29 11:15:00,61.8,45.0,30.25,WNW,292,2.0,11.0,54,0.00,,,0.00,WeatherCatV1.02B3,2013-04-29 15:15:00,
2013-04-29 11:20:00,61.8,45.0,30.25,WNW,292,2.0,11.0,54,0.00,,,0.00,WeatherCatV1.02B3,2013-04-29 15:20:00,
2013-04-29 11:25:00,61.8,45.0,30.25,WNW,292,2.0,11.0,54,0.00,,,0.00,WeatherCatV1.02B3,2013-04-29 15:25:00,
2013-04-29 11:30:00,61.8,45.0,30.25,WNW,292,2.0,11.0,54,0.00,,,0.00,WeatherCatV1.02B3,2013-04-29 15:30:00,
2013-04-29 11:35:00,64.3,42.5,30.25,SSW,202,2.0,9.0,45,0.00,,,0.00,WeatherCatV1.02B3,2013-04-29 15:35:00,
2013-04-29 11:40:00,64.3,42.5,30.25,SSW,202,2.0,9.0,45,0.00,,,0.00,WeatherCatV1.02B3,2013-04-29 15:40:00,
2013-04-29 11:45:00,64.3,42.5,30.25,SSW,202,2.0,9.0,45,0.00,,,0.00,WeatherCatV1.02B3,2013-04-29 15:45:00,
2013-04-29 11:50:00,64.3,42.5,30.25,SSW,202,2.0,9.0,45,0.00,,,0.00,WeatherCatV1.02B3,2013-04-29 15:50:00,
2013-04-29 11:55:00,64.3,42.5,30.25,SSW,202,2.0,9.0,45,0.00,,,0.00,WeatherCatV1.02B3,2013-04-29 15:55:00,
2013-04-29 12:00:00,64.3,42.5,30.25,SSW,202,2.0,9.0,45,0.00,,,0.00,WeatherCatV1.02B3,2013-04-29 16:00:00,
2013-04-29 12:05:00,65.1,42.6,30.24,SW,225,4.0,11.0,44,0.00,,,0.00,WeatherCatV1.02B3,2013-04-29 16:05:00,
2013-04-29 12:10:00,65.1,42.6,30.24,SW,225,4.0,11.0,44,0.00,,,0.00,WeatherCatV1.02B3,2013-04-29 16:10:00,
2013-04-29 12:15:00,65.1,42.6,30.24,SW,225,4.0,11.0,44,0.00,,,0.00,WeatherCatV1.02B3,2013-04-29 16:15:00,
2013-04-29 12:20:00,65.1,42.6,30.24,SW,225,4.0,11.0,44,0.00,,,0.00,WeatherCatV1.02B3,2013-04-29 16:20:00,
2013-04-29 12:25:00,65.1,42.6,30.24,SW,225,4.0,11.0,44,0.00,,,0.00,WeatherCatV1.02B3,2013-04-29 16:25:00,
2013-04-29 12:30:00,65.1,42.6,30.24,SW,225,4.0,11.0,44,0.00,,,0.00,WeatherCatV1.02B3,2013-04-29 16:30:00,
2013-04-29 12:35:00,66.5,40.8,30.23,SW,225,3.0,11.0,39,0.00,,,0.00,WeatherCatV1.02B3,2013-04-29 16:35:00,
2013-04-29 12:40:00,66.5,40.8,30.23,SW,225,3.0,11.0,39,0.00,,,0.00,WeatherCatV1.02B3,2013-04-29 16:40:00,
2013-04-29 12:45:00,66.5,40.8,30.23,SW,225,3.0,11.0,39,0.00,,,0.00,WeatherCatV1.02B3,2013-04-29 16:45:00,
2013-04-29 12:50:00,66.5,40.8,30.23,SW,225,3.0,11.0,39,0.00,,,0.00,WeatherCatV1.02B3,2013-04-29 16:50:00,
2013-04-29 12:55:00,66.5,40.8,30.23,SW,225,3.0,11.0,39,0.00,,,0.00,WeatherCatV1.02B3,2013-04-29 16:55:00,
2013-04-29 13:00:00,66.5,40.8,30.23,SW,225,3.0,11.0,39,0.00,,,0.00,WeatherCatV1.02B3,2013-04-29 17:00:00,
2013-04-29 13:05:00,67.1,40.0,30.22,SSE,158,3.0,15.0,37,0.00,,,0.00,WeatherCatV1.02B3,2013-04-29 17:05:00,
2013-04-29 13:10:00,67.1,40.0,30.22,SSE,158,3.0,15.0,37,0.00,,,0.00,WeatherCatV1.02B3,2013-04-29 17:10:00,
2013-04-29 13:15:00,67.1,40.0,30.22,SSE,158,3.0,15.0,37,0.00,,,0.00,WeatherCatV1.02B3,2013-04-29 17:15:00,
2013-04-29 13:20:00,67.1,40.0,30.22,SSE,158,3.0,15.0,37,0.00,,,0.00,WeatherCatV1.02B3,2013-04-29 17:20:00,
2013-04-29 13:25:00,67.1,40.0,30.22,SSE,158,3.0,15.0,37,0.00,,,0.00,WeatherCatV1.02B3,2013-04-29 17:25:00,
2013-04-29 13:30:00,67.1,40.0,30.22,SSE,158,3.0,15.0,37,0.00,,,0.00,WeatherCatV1.02B3,2013-04-29 17:30:00,
2013-04-29 13:35:00,66.7,40.9,30.22,SSE,158,4.0,13.0,39,0.00,,,0.00,WeatherCatV1.02B3,2013-04-29 17:35:00,
2013-04-29 13:40:00,66.7,40.9,30.22,SSE,158,4.0,13.0,39,0.00,,,0.00,WeatherCatV1.02B3,2013-04-29 17:40:00,
2013-04-29 13:45:00,66.7,40.9,30.22,SSE,158,4.0,13.0,39,0.00,,,0.00,WeatherCatV1.02B3,2013-04-29 17:45:00,
2013-04-29 13:50:00,66.7,40.9,30.22,SSE,158,4.0,13.0,39,0.00,,,0.00,WeatherCatV1.02B3,2013-04-29 17:50:00,
2013-04-29 13:55:00,66.7,40.9,30.22,SSE,158,4.0,13.0,39,0.00,,,0.00,WeatherCatV1.02B3,2013-04-29 17:55:00,
2013-04-29 14:00:00,66.0,41.0,30.21,SE,135,4.0,11.0,40,0.00,,,0.00,WeatherCatV1.02B3,2013-04-29 18:00:00,
2013-04-29 14:05:00,66.0,41.0,30.21,SE,135,4.0,11.0,40,0.00,,,0.00,WeatherCatV1.02B3,2013-04-29 18:05:00,
2013-04-29 14:10:00,66.0,41.0,30.21,SE,135,4.0,11.0,40,0.00,,,0.00,WeatherCatV1.02B3,2013-04-29 18:10:00,
2013-04-29 14:15:00,66.0,41.0,30.21,SE,135,4.0,11.0,40,0.00,,,0.00,WeatherCatV1.02B3,2013-04-29 18:15:00,
2013-04-29 14:20:00,66.0,41.0,30.21,SE,135,4.0,11.0,40,0.00,,,0.00,WeatherCatV1.02B3,2013-04-29 18:20:00,
2013-04-29 14:25:00,66.0,41.0,30.21,SE,135,4.0,11.0,40,0.00,,,0.00,WeatherCatV1.02B3,2013-04-29 18:25:00,
2013-04-29 14:30:00,65.2,38.9,30.21,ESE,112,5.0,14.0,38,0.00,,,0.00,WeatherCatV1.02B3,2013-04-29 18:30:00,
2013-04-29 14:35:00,65.2,38.9,30.21,ESE,112,5.0,14.0,38,0.00,,,0.00,WeatherCatV1.02B3,2013-04-29 18:35:00,
2013-04-29 14:40:00,65.2,38.9,30.21,ESE,112,5.0,14.0,38,0.00,,,0.00,WeatherCatV1.02B3,2013-04-29 18:40:00,
2013-04-29 14:45:00,65.2,38.9,30.21,ESE,112,5.0,14.0,38,0.00,,,0.00,WeatherCatV1.02B3,2013-04-29 18:45:00,
2013-04-29 14:50:00,65.2,38.9,30.21,ESE,112,5.0,14.0,38,0.00,,,0.00,WeatherCatV1.02B3,2013-04-29 18:50:00,
2013-04-29 14:55:00,65.2,38.9,30.21,ESE,112,5.0,14.0,38,0.00,,,0.00,WeatherCatV1.02B3,2013-04-29 18:55:00,
2013-04-29 15:00:00,67.3,38.7,30.20,SSW,202,4.0,14.0,35,0.00,,,0.00,WeatherCatV1.02B3,2013-04-29 19:00:00,
2013-04-29 15:05:00,67.3,38.7,30.20,SSW,202,4.0,14.0,35,0.00,,,0.00,WeatherCatV1.02B3,2013-04-29 19:05:00,
2013-04-29 15:10:00,67.3,38.7,30.20,SSW,202,4.0,14.0,35,0.00,,,0.00,WeatherCatV1.02B3,2013-04-29 19:10:00,
2013-04-29 15:15:00,67.3,38.7,30.20,SSW,202,4.0,14.0,35,0.00,,,0.00,WeatherCatV1.02B3,2013-04-29 19:15:00,
2013-04-29 15:20:00,67.3,38.7,30.20,SSW,202,4.0,14.0,35,0.00,,,0.00,WeatherCatV1.02B3,2013-04-29 19:20:00,
2013-04-29 15:25:00,67.3,38.7,30.20,SSW,202,4.0,14.0,35,0.00,,,0.00,WeatherCatV1.02B3,2013-04-29 19:25:00,
2013-04-29 15:30:00,67.3,38.7,30.20,SSW,202,4.0,14.0,35,0.00,,,0.00,WeatherCatV1.02B3,2013-04-29 19:30:00,
2013-04-29 15:35:00,67.0,38.4,30.20,SSE,158,4.0,16.0,35,0.00,,,0.00,WeatherCatV1.02B3,2013-04-29 19:35:00,
2013-04-29 15:40:00,67.0,38.4,30.20,SSE,158,4.0,16.0,35,0.00,,,0.00,WeatherCatV1.02B3,2013-04-29 19:40:00,
2013-04-29 15:45:00,67.0,38.4,30.20,SSE,158,4.0,16.0,35,0.00,,,0.00,WeatherCatV1.02B3,2013-04-29 19:45:00,
2013-04-29 15:50:00,67.0,38.4,30.20,SSE,158,4.0,16.0,35,0.00,,,0.00,WeatherCatV1.02B3,2013-04-29 19:50:00,
2013-04-29 15:55:00,67.0,38.4,30.20,SSE,158,4.0,16.0,35,0.00,,,0.00,WeatherCatV1.02B3,2013-04-29 19:55:00,
2013-04-29 16:00:00,66.8,36.0,30.20,SE,135,4.0,15.0,32,0.00,,,0.00,WeatherCatV1.02B3,2013-04-29 20:00:00,
2013-04-29 16:05:00,66.8,36.0,30.20,SE,135,4.0,15.0,32,0.00,,,0.00,WeatherCatV1.02B3,2013-04-29 20:05:00,
2013-04-29 16:10:00,66.8,36.0,30.20,SE,135,4.0,15.0,32,0.00,,,0.00,WeatherCatV1.02B3,2013-04-29 20:10:00,
2013-04-29 16:15:00,66.8,36.0,30.20,SE,135,4.0,15.0,32,0.00,,,0.00,WeatherCatV1.02B3,2013-04-29 20:15:00,
2013-04-29 16:20:00,66.8,36.0,30.20,SE,135,4.0,15.0,32,0.00,,,0.00,WeatherCatV1.02B3,2013-04-29 20:20:00,
2013-04-29 16:25:00,66.8,36.0,30.20,SE,135,4.0,15.0,32,0.00,,,0.00,WeatherCatV1.02B3,2013-04-29 20:25:00,
2013-04-29 16:30:00,66.3,34.8,30.20,SSW,202,4.0,12.0,31,0.00,,,0.00,WeatherCatV1.02B3,2013-04-29 20:30:00,
2013-04-29 16:35:00,66.3,34.8,30.20,SSW,202,4.0,12.0,31,0.00,,,0.00,WeatherCatV1.02B3,2013-04-29 20:35:00,
2013-04-29 16:40:00,66.3,34.8,30.20,SSW,202,4.0,12.0,31,0.00,,,0.00,WeatherCatV1.02B3,2013-04-29 20:40:00,
2013-04-29 16:45:00,66.3,34.8,30.20,SSW,202,4.0,12.0,31,0.00,,,0.00,WeatherCatV1.02B3,2013-04-29 20:45:00,
2013-04-29 16:50:00,66.3,34.8,30.20,SSW,202,4.0,12.0,31,0.00,,,0.00,WeatherCatV1.02B3,2013-04-29 20:50:00,
2013-04-29 16:55:00,66.3,34.8,30.20,SSW,202,4.0,12.0,31,0.00,,,0.00,WeatherCatV1.02B3,2013-04-29 20:55:00,
2013-04-29 17:00:00,66.3,34.8,30.20,SSW,202,4.0,12.0,31,0.00,,,0.00,WeatherCatV1.02B3,2013-04-29 21:00:00,
2013-04-29 17:05:00,63.1,31.2,30.21,SSW,202,5.0,15.0,30,0.00,,,0.00,WeatherCatV1.02B3,2013-04-29 21:05:00,
2013-04-29 17:10:00,63.1,31.2,30.21,SSW,202,5.0,15.0,30,0.00,,,0.00,WeatherCatV1.02B3,2013-04-29 21:10:00,
2013-04-29 17:15:00,63.1,31.2,30.21,SSW,202,5.0,15.0,30,0.00,,,0.00,WeatherCatV1.02B3,2013-04-29 21:15:00,
2013-04-29 17:20:00,63.1,31.2,30.21,SSW,202,5.0,15.0,30,0.00,,,0.00,WeatherCatV1.02B3,2013-04-29 21:20:00,
2013-04-29 17:25:00,63.1,31.2,30.21,SSW,202,5.0,15.0,30,0.00,,,0.00,WeatherCatV1.02B3,2013-04-29 21:25:00,
2013-04-29 17:30:00,63.1,31.2,30.21,SSW,202,5.0,15.0,30,0.00,,,0.00,WeatherCatV1.02B3,2013-04-29 21:30:00,
2013-04-29 17:35:00,62.5,30.6,30.21,SSW,202,5.0,16.0,30,0.00,,,0.00,WeatherCatV1.02B3,2013-04-29 21:35:00,
2013-04-29 17:40:00,62.5,30.6,30.21,SSW,202,5.0,16.0,30,0.00,,,0.00,WeatherCatV1.02B3,2013-04-29 21:40:00,
2013-04-29 17:45:00,62.5,30.6,30.21,SSW,202,5.0,16.0,30,0.00,,,0.00,WeatherCatV1.02B3,2013-04-29 21:45:00,
2013-04-29 17:50:00,62.5,30.6,30.21,SSW,202,5.0,16.0,30,0.00,,,0.00,WeatherCatV1.02B3,2013-04-29 21:50:00,
2013-04-29 17:55:00,62.5,30.6,30.21,SSW,202,5.0,16.0,30,0.00,,,0.00,WeatherCatV1.02B3,2013-04-29 21:55:00,
2013-04-29 18:00:00,62.5,30.6,30.21,SSW,202,5.0,16.0,30,0.00,,,0.00,WeatherCatV1.02B3,2013-04-29 22:00:00,
2013-04-29 18:05:00,61.9,30.9,30.22,SSW,202,5.0,13.0,31,0.00,,,0.00,WeatherCatV1.02B3,2013-04-29 22:05:00,
2013-04-29 18:10:00,61.9,30.9,30.22,SSW,202,5.0,13.0,31,0.00,,,0.00,WeatherCatV1.02B3,2013-04-29 22:10:00,
2013-04-29 18:15:00,61.9,30.9,30.22,SSW,202,5.0,13.0,31,0.00,,,0.00,WeatherCatV1.02B3,2013-04-29 22:15:00,
2013-04-29 18:20:00,61.9,30.9,30.22,SSW,202,5.0,13.0,31,0.00,,,0.00,WeatherCatV1.02B3,2013-04-29 22:20:00,
2013-04-29 18:25:00,61.9,30.9,30.22,SSW,202,5.0,13.0,31,0.00,,,0.00,WeatherCatV1.02B3,2013-04-29 22:25:00,
2013-04-29 18:30:00,61.9,30.9,30.22,SSW,202,5.0,13.0,31,0.00,,,0.00,WeatherCatV1.02B3,2013-04-29 22:30:00,
2013-04-29 18:35:00,61.6,30.7,30.23,SSW,202,4.0,13.0,31,0.00,,,0.00,WeatherCatV1.02B3,2013-04-29 22:35:00,
2013-04-29 18:40:00,61.6,30.7,30.23,SSW,202,4.0,13.0,31,0.00,,,0.00,WeatherCatV1.02B3,2013-04-29 22:40:00,
2013-04-29 18:45:00,61.6,30.7,30.23,SSW,202,4.0,13.0,31,0.00,,,0.00,WeatherCatV1.02B3,2013-04-29 22:45:00,
2013-04-29 18:50:00,61.6,30.7,30.23,SSW,202,4.0,13.0,31,0.00,,,0.00,WeatherCatV1.02B3,2013-04-29 22:50:00,
2013-04-29 18:55:00,61.6,30.7,30.23,SSW,202,4.0,13.0,31,0.00,,,0.00,WeatherCatV1.02B3,2013-04-29 22:55:00,
2013-04-29 19:00:00,61.6,30.7,30.23,SSW,202,4.0,13.0,31,0.00,,,0.00,WeatherCatV1.02B3,2013-04-29 23:00:00,
2013-04-29 19:05:00,60.3,30.3,30.23,SW,225,5.0,13.0,32,0.00,,,0.00,WeatherCatV1.02B3,2013-04-29 23:05:00,
2013-04-29 19:10:00,60.3,30.3,30.23,SW,225,5.0,13.0,32,0.00,,,0.00,WeatherCatV1.02B3,2013-04-29 23:10:00,
2013-04-29 19:15:00,60.3,30.3,30.23,SW,225,5.0,13.0,32,0.00,,,0.00,WeatherCatV1.02B3,2013-04-29 23:15:00,
2013-04-29 19:20:00,60.3,30.3,30.23,SW,225,5.0,13.0,32,0.00,,,0.00,WeatherCatV1.02B3,2013-04-29 23:20:00,
2013-04-29 19:25:00,60.3,30.3,30.23,SW,225,5.0,13.0,32,0.00,,,0.00,WeatherCatV1.02B3,2013-04-29 23:25:00,
2013-04-29 19:30:00,59.3,30.2,30.24,SW,225,2.0,10.0,33,0.00,,,0.00,WeatherCatV1.02B3,2013-04-29 23:30:00,
2013-04-29 19:35:00,59.3,30.2,30.24,SW,225,2.0,10.0,33,0.00,,,0.00,WeatherCatV1.02B3,2013-04-29 23:35:00,
2013-04-29 19:40:00,59.3,30.2,30.24,SW,225,2.0,10.0,33,0.00,,,0.00,WeatherCatV1.02B3,2013-04-29 23:40:00,
2013-04-29 19:45:00,59.3,30.2,30.24,SW,225,2.0,10.0,33,0.00,,,0.00,WeatherCatV1.02B3,2013-04-29 23:45:00,
2013-04-29 19:50:00,59.3,30.2,30.24,SW,225,2.0,10.0,33,0.00,,,0.00,WeatherCatV1.02B3,2013-04-29 23:50:00,
2013-04-29 19:55:00,59.3,30.2,30.24,SW,225,2.0,10.0,33,0.00,,,0.00,WeatherCatV1.02B3,2013-04-29 23:55:00,
2013-04-29 20:00:00,58.1,27.6,30.24,SW,225,1.0,7.0,31,0.00,,,0.00,WeatherCatV1.02B3,2013-04-30 00:00:00,
2013-04-29 20:05:00,58.1,27.6,30.24,SW,225,1.0,7.0,31,0.00,,,0.00,WeatherCatV1.02B3,2013-04-30 00:05:00,
2013-04-29 20:10:00,58.1,27.6,30.24,SW,225,1.0,7.0,31,0.00,,,0.00,WeatherCatV1.02B3,2013-04-30 00:10:00,
2013-04-29 20:15:00,58.1,27.6,30.24,SW,225,1.0,7.0,31,0.00,,,0.00,WeatherCatV1.02B3,2013-04-30 00:15:00,
2013-04-29 20:20:00,58.1,27.6,30.24,SW,225,1.0,7.0,31,0.00,,,0.00,WeatherCatV1.02B3,2013-04-30 00:20:00,
2013-04-29 20:25:00,58.1,27.6,30.24,SW,225,1.0,7.0,31,0.00,,,0.00,WeatherCatV1.02B3,2013-04-30 00:25:00,
2013-04-29 20:30:00,58.1,27.6,30.24,SW,225,1.0,7.0,31,0.00,,,0.00,WeatherCatV1.02B3,2013-04-30 00:30:00,
2013-04-29 20:35:00,57.0,28.2,30.25,SW,225,0.0,5.0,33,0.00,,,0.00,WeatherCatV1.02B3,2013-04-30 00:35:00,
2013-04-29 20:40:00,57.0,28.2,30.25,SW,225,0.0,5.0,33,0.00,,,0.00,WeatherCatV1.02B3,2013-04-30 00:40:00,
2013-04-29 20:45:00,57.0,28.2,30.25,SW,225,0.0,5.0,33,0.00,,,0.00,WeatherCatV1.02B3,2013-04-30 00:45:00,
2013-04-29 20:50:00,57.0,28.2,30.25,SW,225,0.0,5.0,33,0.00,,,0.00,WeatherCatV1.02B3,2013-04-30 00:50:00,
2013-04-29 20:55:00,57.0,28.2,30.25,SW,225,0.0,5.0,33,0.00,,,0.00,WeatherCatV1.02B3,2013-04-30 00:55:00,
2013-04-29 21:00:00,57.0,28.2,30.25,SW,225,0.0,5.0,33,0.00,,,0.00,WeatherCatV1.02B3,2013-04-30 01:00:00,
2013-04-29 21:05:00,56.6,27.1,30.26,SW,225,1.0,6.0,32,0.00,,,0.00,WeatherCatV1.02B3,2013-04-30 01:05:00,
2013-04-29 21:10:00,56.6,27.1,30.26,SW,225,1.0,6.0,32,0.00,,,0.00,WeatherCatV1.02B3,2013-04-30 01:10:00,
2013-04-29 21:15:00,56.6,27.1,30.26,SW,225,1.0,6.0,32,0.00,,,0.00,WeatherCatV1.02B3,2013-04-30 01:15:00,
2013-04-29 21:20:00,56.6,27.1,30.26,SW,225,1.0,6.0,32,0.00,,,0.00,WeatherCatV1.02B3,2013-04-30 01:20:00,
2013-04-29 21:25:00,56.6,27.1,30.26,SW,225,1.0,6.0,32,0.00,,,0.00,WeatherCatV1.02B3,2013-04-30 01:25:00,
2013-04-29 21:30:00,56.6,27.1,30.26,SW,225,1.0,6.0,32,0.00,,,0.00,WeatherCatV1.02B3,2013-04-30 01:30:00,
2013-04-29 21:35:00,55.9,26.5,30.27,SSW,202,2.0,7.0,32,0.00,,,0.00,WeatherCatV1.02B3,2013-04-30 01:35:00,
2013-04-29 21:40:00,55.9,26.5,30.27,SSW,202,2.0,7.0,32,0.00,,,0.00,WeatherCatV1.02B3,2013-04-30 01:40:00,
2013-04-29 21:45:00,55.9,26.5,30.27,SSW,202,2.0,7.0,32,0.00,,,0.00,WeatherCatV1.02B3,2013-04-30 01:45:00,
2013-04-29 21:50:00,55.9,26.5,30.27,SSW,202,2.0,7.0,32,0.00,,,0.00,WeatherCatV1.02B3,2013-04-30 01:50:00,
2013-04-29 21:55:00,55.9,26.5,30.27,SSW,202,2.0,7.0,32,0.00,,,0.00,WeatherCatV1.02B3,2013-04-30 01:55:00,
2013-04-29 22:00:00,55.9,26.5,30.27,SSW,202,2.0,7.0,32,0.00,,,0.00,WeatherCatV1.02B3,2013-04-30 02:00:00,
2013-04-29 22:05:00,55.5,26.9,30.27,SW,225,2.0,8.0,33,0.00,,,0.00,WeatherCatV1.02B3,2013-04-30 02:05:00,
2013-04-29 22:10:00,55.5,26.9,30.27,SW,225,2.0,8.0,33,0.00,,,0.00,WeatherCatV1.02B3,2013-04-30 02:10:00,
2013-04-29 22:15:00,55.5,26.9,30.27,SW,225,2.0,8.0,33,0.00,,,0.00,WeatherCatV1.02B3,2013-04-30 02:15:00,
2013-04-29 22:20:00,55.5,26.9,30.27,SW,225,2.0,8.0,33,0.00,,,0.00,WeatherCatV1.02B3,2013-04-30 02:20:00,
2013-04-29 22:25:00,55.5,26.9,30.27,SW,225,2.0,8.0,33,0.00,,,0.00,WeatherCatV1.02B3,2013-04-30 02:25:00,
2013-04-29 22:30:00,55.0,27.2,30.27,SW,225,1.0,7.0,34,0.00,,,0.00,WeatherCatV1.02B3,2013-04-30 02:30:00,
2013-04-29 22:35:00,55.0,27.2,30.27,SW,225,1.0,7.0,34,0.00,,,0.00,WeatherCatV1.02B3,2013-04-30 02:35:00,
2013-04-29 22:40:00,55.0,27.2,30.27,SW,225,1.0,7.0,34,0.00,,,0.00,WeatherCatV1.02B3,2013-04-30 02:40:00,
2013-04-29 22:45:00,55.0,27.2,30.27,SW,225,1.0,7.0,34,0.00,,,0.00,WeatherCatV1.02B3,2013-04-30 02:45:00,
2013-04-29 22:50:00,55.0,27.2,30.27,SW,225,1.0,7.0,34,0.00,,,0.00,WeatherCatV1.02B3,2013-04-30 02:50:00,
2013-04-29 22:55:00,55.0,27.2,30.27,SW,225,1.0,7.0,34,0.00,,,0.00,WeatherCatV1.02B3,2013-04-30 02:55:00,
2013-04-29 23:00:00,54.5,26.0,30.27,SW,225,1.0,8.0,33,0.00,,,0.00,WeatherCatV1.02B3,2013-04-30 03:00:00,
2013-04-29 23:05:00,54.5,26.0,30.27,SW,225,1.0,8.0,33,0.00,,,0.00,WeatherCatV1.02B3,2013-04-30 03:05:00,
2013-04-29 23:10:00,54.5,26.0,30.27,SW,225,1.0,8.0,33,0.00,,,0.00,WeatherCatV1.02B3,2013-04-30 03:10:00,
2013-04-29 23:15:00,54.5,26.0,30.27,SW,225,1.0,8.0,33,0.00,,,0.00,WeatherCatV1.02B3,2013-04-30 03:15:00,
2013-04-29 23:20:00,54.5,26.0,30.27,SW,225,1.0,8.0,33,0.00,,,0.00,WeatherCatV1.02B3,2013-04-30 03:20:00,
2013-04-29 23:25:00,54.5,26.0,30.27,SW,225,1.0,8.0,33,0.00,,,0.00,WeatherCatV1.02B3,2013-04-30 03:25:00,
2013-04-29 23:30:00,54.5,26.0,30.27,SW,225,1.0,8.0,33,0.00,,,0.00,WeatherCatV1.02B3,2013-04-30 03:30:00,
2013-04-29 23:35:00,54.1,25.6,30.28,SW,225,1.0,6.0,33,0.00,,,0.00,WeatherCatV1.02B3,2013-04-30 03:35:00,
2013-04-29 23:40:00,54.1,25.6,30.28,SW,225,1.0,6.0,33,0.00,,,0.00,WeatherCatV1.02B3,2013-04-30 03:40:00,
2013-04-29 23:45:00,54.1,25.6,30.28,SW,225,1.0,6.0,33,0.00,,,0.00,WeatherCatV1.02B3,2013-04-30 03:45:00,
2013-04-29 23:50:00,54.1,25.6,30.28,SW,225,1.0,6.0,33,0.00,,,0.00,WeatherCatV1.02B3,2013-04-30 03:50:00,
2013-04-29 23:55:00,54.1,25.6,30.28,SW,225,1.0,6.0,33,0.00,,,0.00,WeatherCatV1.02B3,2013-04-30 03:55:00,